#timestamp,LO_Frequency,Hit,StdDev 
1515207615.4,286046992.2,P
1515207635.2,286046993.8,P
1515207655.1,286046994.8,P
1515207656.0,286046994.8,Y
1515207675.8,286046999.4,P
1515207695.6,286047000.8,N
1515207715.5,286046998.5,N
1515207735.3,286047005.0,N
1515207755.1,286047001.8,N
1515207775.9,286047000.4,N
1515207795.7,286046998.2,N
1515207815.5,286047001.9,N
1515207835.3,286047002.7,N
1515207855.2,286047001.9,N
1515207875.0,286047000.5,N
1515207875.9,286047000.5,N
1515207895.7,286046997.1,N
1515207915.6,286046999.0,N
1515207935.4,286047000.0,N
1515207955.2,286047007.0,N
1515207975.1,286047010.7,Y
1515207976.0,286047010.7,P
1515207995.8,286047009.5,N
1515208015.6,286047011.3,N
1515208035.5,286047013.2,Y
1515208055.3,286047005.5,P
1515208075.1,286047003.9,P
1515208095.9,286047002.0,N
1515208115.7,286047003.2,N
1515208135.5,286047002.0,N
1515208155.4,286047000.7,N
1515208175.2,286047001.7,N
1515208195.0,286047006.7,N
1515208195.9,286047006.7,N
1515208215.8,286047007.3,Y
1515208235.6,286047002.3,P
1515208255.4,286047002.5,N
1515208275.3,286047001.3,N
1515208295.1,286047000.1,N
1515208296.0,286047000.1,N
1515208315.8,286047001.0,N
1515208335.7,286047000.3,N
1515208355.5,286047000.2,N
1515208375.3,286047002.1,N
1515208395.2,286047008.4,Y
1515208415.9,286047010.1,P
1515208435.7,286047010.3,N
1515208455.6,286047010.8,N
1515208475.4,286047010.4,N
1515208495.2,286047012.4,Y
1515208515.1,286047004.4,P
1515208516.0,286047004.4,N
1515208535.8,286047002.7,N
1515208555.6,286047001.1,N
1515208575.4,286047002.0,N
1515208595.3,286047002.0,N
1515208615.1,286047003.6,N
1515208635.8,286047001.4,N
1515208655.7,286047005.0,N
1515208675.5,286047003.7,N
1515208695.3,286047001.5,N
1515208715.2,286047003.9,N
1515208735.9,286047002.4,N
1515208755.7,286047000.5,N
1515208775.6,286046999.4,N
1515208795.4,286046997.6,N
1515208815.2,286046999.5,N
1515208835.0,286047001.0,N
1515208836.0,286047001.0,N
1515208855.8,286046995.6,N
1515208875.6,286046994.8,N
1515208895.4,286046993.2,N
1515208915.3,286046988.8,Y
1515208935.1,286046984.9,P
1515208955.8,286046986.7,N
1515208975.7,286046986.6,N
1515208995.5,286046986.6,N
1515209015.3,286046986.8,N
1515209035.2,286046984.3,N
1515209055.9,286046985.9,N
1515209075.7,286046984.1,Y
1515209095.6,286046999.2,P
1515209115.4,286046997.6,N
1515209135.2,286046996.3,N
1515209155.1,286046991.8,N
1515209156.0,286046991.8,N
1515209175.8,286046992.9,N
1515209195.6,286046988.6,Y
1515209215.5,286046994.1,P
1515209235.3,286046994.6,P
1515209255.1,286046996.1,P
1515209275.9,286046994.6,Y
1515209295.7,286046999.0,P
1515209315.5,286046997.3,N
1515209335.4,286046997.8,N
1515209355.2,286046999.3,N
1515209375.0,286046998.4,N
1515209375.9,286046998.4,N
1515209395.8,286046997.7,N
1515209415.6,286046992.3,Y
1515209435.4,286046994.2,P
1515209455.3,286046996.4,N
1515209475.1,286046992.8,P
1515209476.0,286046992.8,Y
1515209495.8,286046995.6,P
1515209515.7,286046993.7,P
1515209535.5,286046996.8,P
1515209555.3,286046993.9,Y
1515209575.2,286047001.0,P
1515209595.9,286046998.3,N
1515209615.7,286046996.6,N
1515209635.6,286046995.6,N
1515209655.4,286046996.2,N
1515209675.2,286046995.4,N
1515209695.1,286046995.4,N
1515209696.0,286046995.4,N
1515209715.8,286046995.5,N
1515209735.6,286046998.7,N
1515209755.4,286046999.2,N
1515209775.3,286046997.8,N
1515209795.1,286046997.5,N
1515209815.8,286046995.3,N
1515209835.7,286046996.0,N
1515209855.5,286046993.7,Y
1515209875.3,286046996.5,P
1515209895.2,286046998.0,P
1515209915.0,286046995.2,P
1515209915.9,286046995.2,Y
1515209935.8,286046998.4,P
1515209955.6,286047000.1,N
1515209975.4,286046998.5,N
1515209995.2,286047000.7,N
1515210015.1,286047000.9,N
1515210016.0,286047000.9,N
1515210035.8,286047001.9,N
1515210055.6,286047000.8,N
1515210075.5,286047001.0,N
1515210095.3,286047000.0,N
1515210115.1,286047002.7,N
1515210135.9,286047002.7,N
1515210155.7,286047001.8,N
1515210175.5,286047005.9,Y
1515210195.4,286047001.9,P
1515210215.2,286047001.3,N
1515210235.0,286047001.4,N
1515210235.9,286047001.4,N
1515210255.8,286047004.4,Y
1515210275.6,286047001.2,P
1515210295.4,286047001.4,P
1515210315.3,286047002.1,P
1515210335.1,286047002.3,Y
1515210355.8,286047000.2,P
1515210375.7,286047001.7,N
1515210395.5,286047001.3,N
1515210415.3,286047003.5,Y
1515210435.2,286047004.0,P
1515210455.0,286047004.3,P
1515210455.9,286047004.3,P
1515210475.8,286047007.6,Y
1515210495.6,286047002.5,P
1515210515.4,286047001.9,P
1515210535.2,286047003.4,P
1515210555.1,286047006.5,Y
1515210556.0,286047006.5,P
1515210575.8,286047005.1,N
1515210595.6,286047009.1,P
1515210615.5,286047010.8,Y
1515210635.3,286047004.3,P
1515210655.1,286046999.0,N
1515210675.9,286046995.8,N
1515210695.7,286046991.9,N
1515210715.5,286046988.5,N
1515210735.4,286046991.5,N
1515210755.2,286046987.4,N
1515210775.0,286046985.8,N
1515210775.9,286046985.8,N
1515210795.8,286046985.8,N
1515210815.6,286046988.2,N
1515210835.4,286046985.5,N
1515210855.3,286046985.3,N
1515210875.1,286046985.8,N
1515210876.0,286046985.8,N
1515210895.8,286046991.4,N
1515210915.7,286046985.7,N
1515210935.5,286046986.6,N
1515210955.3,286046986.1,N
1515210975.2,286046986.7,N
1515210995.9,286046985.6,N
1515211015.7,286046988.4,N
1515211035.5,286046987.2,N
1515211055.4,286046987.2,N
1515211075.2,286046992.6,N
1515211095.0,286046994.7,N
1515211095.9,286046994.7,N
1515211115.8,286046990.1,N
1515211135.6,286046991.3,N
1515211155.4,286046989.8,N
1515211175.3,286046987.1,N
1515211195.1,286046988.0,Y
